EW4723 Port Townsend WA US current weather conditions

sailwx.info

Wind from 350

Air temperature 12.2° C
Dewpoint 10.3° C

Last reported at 2020-Aug-10 08:01 UTC.
Time now 2020-Aug-10 08:25 UTC

Location: N 48°08' W 122°50'.
View on Google Maps.

See reports from other nearby stations

  
Tides and Currents Weather Stations Pressure Air Temp Water Temp Dewpoint Dewpoint Depression Visibility Wind Speed Wind Dir Waves Ship Positions
date/time (UTC)wind fromknots sea level pressurealtimeterstation pressurevisibilityair tempwater tempwave heightnotes
2020-Aug-10 08:01 350 12.2
2020-Aug-10 07:56 350 12.2
2020-Aug-10 07:51 350 12.2
2020-Aug-10 07:46 355 12.2
2020-Aug-10 07:41 033 12.8
2020-Aug-10 07:36 033 12.8
2020-Aug-10 07:31 132 12.8
2020-Aug-10 07:26 284 12.8
2020-Aug-10 07:21 314 12.8
2020-Aug-10 07:16 329 12.8
2020-Aug-10 07:11 329 13.3
2020-Aug-10 07:06 275 13.3
2020-Aug-10 07:01 275 0 gusting 3 13.3
2020-Aug-10 06:56 336 12.8
2020-Aug-10 06:51 328 12.8
2020-Aug-10 06:46 300 12.8
2020-Aug-10 06:41 299 12.8
2020-Aug-10 06:36 300 12.8
2020-Aug-10 06:31 300 12.8
2020-Aug-10 06:26 300 12.8
2020-Aug-10 06:21 300 12.8
2020-Aug-10 06:16 300 12.8
2020-Aug-10 06:11 300 12.8
2020-Aug-10 06:06 333 12.8
2020-Aug-10 06:01 332 13.3
2020-Aug-10 05:56 332 13.3
2020-Aug-10 05:51 320 13.3
2020-Aug-10 05:46 309 13.3
2020-Aug-10 05:41 345 12.8
2020-Aug-10 05:36 012 12.8
2020-Aug-10 05:31 331 12.8
2020-Aug-10 05:26 013 12.8
2020-Aug-10 05:21 020 12.8
2020-Aug-10 05:16 319 12.8
2020-Aug-10 05:11 319 12.8
2020-Aug-10 05:06 319 12.8
2020-Aug-10 05:01 319 12.8
2020-Aug-10 04:56 319 13.3
2020-Aug-10 04:51 319 13.3
2020-Aug-10 04:46 319 13.3
2020-Aug-10 04:40 319 13.3
2020-Aug-10 04:35 319 13.3
2020-Aug-10 04:30 341 13.3
2020-Aug-10 04:25 340 13.3
2020-Aug-10 04:20 340 13.3
2020-Aug-10 04:15 340 13.9
2020-Aug-10 04:10 340 0 gusting 3 13.9
2020-Aug-10 04:05 339 0 gusting 5 13.9
2020-Aug-10 04:00 315 0 gusting 5 14.4
2020-Aug-10 03:55 323 0 gusting 4 13.9
2020-Aug-10 03:50 342 1 gusting 4 13.9
2020-Aug-10 03:45 028 1 gusting 4 13.9
2020-Aug-10 03:40 331 0 gusting 3 13.9
2020-Aug-10 03:35 028 0 gusting 2 13.9
2020-Aug-10 03:30 332 1 gusting 4 13.9
2020-Aug-10 03:25 348 0 gusting 4 14.4
2020-Aug-10 03:20 329 0 gusting 6 14.4
2020-Aug-10 03:15 336 0 gusting 6 14.4
2020-Aug-10 03:10 351 0 gusting 4 14.4
2020-Aug-10 03:05 329 0 gusting 5 14.4
2020-Aug-10 03:00 005 0 gusting 5 15.0
2020-Aug-10 02:55 298 0 gusting 5 15.0
2020-Aug-10 02:50 334 15.6
2020-Aug-10 02:45 347 16.1
2020-Aug-10 02:40 347 0 gusting 3 16.7
2020-Aug-10 02:35 332 0 gusting 4 17.2
2020-Aug-10 02:30 319 0 gusting 4 17.8
2020-Aug-10 02:25 301 18.3
2020-Aug-10 02:20 355 0 gusting 3 18.3
2020-Aug-10 02:15 332 0 gusting 3 18.3
2020-Aug-10 02:10 036 18.3
2020-Aug-10 02:05 296 18.3
2020-Aug-10 02:00 342 18.3
2020-Aug-10 01:55 342 18.3
2020-Aug-10 01:50 342 18.9
2020-Aug-10 01:45 305 18.9
2020-Aug-10 01:40 294 18.9
2020-Aug-10 01:35 294 19.4
2020-Aug-10 01:30 294 19.4
2020-Aug-10 01:25 294 0 gusting 3 19.4
2020-Aug-10 01:20 294 0 gusting 3 20.0
2020-Aug-10 01:15 301 20.6
2020-Aug-10 01:05 301 20.6
2020-Aug-10 01:00 301 21.1
2020-Aug-10 00:55 301 0 gusting 3 21.1
2020-Aug-10 00:50 290 21.1
2020-Aug-10 00:40 306 21.1
2020-Aug-10 00:35 311 21.1
2020-Aug-10 00:30 311 0 gusting 2 21.1
2020-Aug-10 00:25 296 0 gusting 3 21.1
2020-Aug-10 00:20 020 0 gusting 3 21.1
2020-Aug-10 00:15 314 0 gusting 3 21.1
2020-Aug-10 00:10 005 0 gusting 4 21.1
2020-Aug-10 00:05 298 0 gusting 4 20.6
2020-Aug-10 00:00 259 21.1
2020-Aug-09 23:54 319 0 gusting 4 20.6
2020-Aug-09 23:49 355 1 gusting 4 20.6
2020-Aug-09 23:44 346 0 gusting 4 21.1
2020-Aug-09 23:39 308 21.7
2020-Aug-09 23:35 134 0 gusting 4 21.7
2020-Aug-09 23:29 272 0 gusting 4 21.7
2020-Aug-09 23:24 025 21.7
2020-Aug-09 23:19 292 0 gusting 6 21.7
2020-Aug-09 23:14 321 0 gusting 6 21.1
2020-Aug-09 23:09 267 0 gusting 6 20.6
2020-Aug-09 23:04 233 0 gusting 6 20.6
2020-Aug-09 22:59 288 0 gusting 5 20.6
2020-Aug-09 22:54 313 0 gusting 6 21.1
2020-Aug-09 22:49 329 0 gusting 6 20.6
2020-Aug-09 22:44 265 0 gusting 3 21.1
2020-Aug-09 22:39 294 0 gusting 6 21.1
2020-Aug-09 22:34 266 0 gusting 6 21.1
2020-Aug-09 22:29 325 0 gusting 4 21.1
2020-Aug-09 22:24 227 0 gusting 5 20.6
2020-Aug-09 22:19 234 0 gusting 5 20.6
2020-Aug-09 22:14 292 0 gusting 3 21.1
2020-Aug-09 22:09 297 0 gusting 3 21.1
2020-Aug-09 22:04 314 1 gusting 6 21.1
2020-Aug-09 21:59 267 0 gusting 6 20.6
2020-Aug-09 21:54 308 0 gusting 3 21.1
2020-Aug-09 21:49 302 0 gusting 4 21.1
2020-Aug-09 21:44 274 0 gusting 5 21.1
2020-Aug-09 21:39 293 0 gusting 5 21.1
2020-Aug-09 21:34 355 21.1
2020-Aug-09 21:29 254 0 gusting 6 21.1
2020-Aug-09 21:24 285 0 gusting 6 20.6
2020-Aug-09 21:19 303 0 gusting 6 21.1
2020-Aug-09 21:14 281 0 gusting 6 21.1
2020-Aug-09 21:09 265 0 gusting 5 20.6
2020-Aug-09 21:04 272 0 gusting 5 20.6
2020-Aug-09 20:59 295 0 gusting 5 20.6
2020-Aug-09 20:54 036 0 gusting 6 20.6
2020-Aug-09 20:49 246 0 gusting 6 20.0
2020-Aug-09 20:44 138 0 gusting 5 20.0
2020-Aug-09 20:39 140 0 gusting 4 20.0
2020-Aug-09 20:34 200 0 gusting 6 20.0
2020-Aug-09 20:29 147 0 gusting 6 18.9
2020-Aug-09 20:24 302 0 gusting 4 19.4
2020-Aug-09 20:19 292 1 gusting 6 18.9
2020-Aug-09 20:14 295 1 gusting 6 18.9
2020-Aug-09 20:09 355 0 gusting 4 19.4
2020-Aug-09 20:04 200 0 gusting 4 19.4
2020-Aug-09 19:59 271 0 gusting 4 19.4
2020-Aug-09 19:54 245 0 gusting 3 20.0
2020-Aug-09 19:49 192 0 gusting 6 20.0
2020-Aug-09 19:44 232 0 gusting 6 19.4
2020-Aug-09 19:39 343 0 gusting 4 19.4
2020-Aug-09 19:34 277 0 gusting 4 19.4
2020-Aug-09 19:29 337 0 gusting 4 19.4
2020-Aug-09 19:23 227 0 gusting 3 19.4
2020-Aug-09 19:18 263 0 gusting 3 19.4
2020-Aug-09 19:13 246 0 gusting 3 19.4
2020-Aug-09 19:08 298 0 gusting 6 18.9
2020-Aug-09 19:03 310 0 gusting 6 19.4
2020-Aug-09 18:58 333 0 gusting 3 19.4
2020-Aug-09 18:53 296 0 gusting 2 19.4
2020-Aug-09 18:48 229 0 gusting 4 19.4
2020-Aug-09 18:43 285 0 gusting 6 19.4
2020-Aug-09 18:38 301 0 gusting 6 18.9
2020-Aug-09 18:33 266 0 gusting 6 18.9
2020-Aug-09 18:28 314 0 gusting 6 19.4
2020-Aug-09 18:23 291 0 gusting 6 18.9
2020-Aug-09 18:18 005 1 gusting 6 18.9
2020-Aug-09 18:13 316 0 gusting 5 18.9
2020-Aug-09 18:08 268 0 gusting 5 18.9
2020-Aug-09 18:03 267 1 gusting 6 18.3
2020-Aug-09 17:58 315 1 gusting 6 18.3
2020-Aug-09 17:53 331 0 gusting 3 18.3
2020-Aug-09 17:48 013 0 gusting 4 18.3
2020-Aug-09 17:43 308 0 gusting 4 18.3
2020-Aug-09 17:38 331 0 gusting 3 18.3
2020-Aug-09 17:33 342 0 gusting 4 17.8
2020-Aug-09 17:28 273 1 gusting 4 17.8
2020-Aug-09 17:23 337 1 gusting 5 17.8
2020-Aug-09 17:18 317 1 gusting 5 17.8
2020-Aug-09 17:13 304 0 gusting 5 17.8
2020-Aug-09 17:08 130 0 gusting 5 17.2
2020-Aug-09 17:03 346 0 gusting 6 17.8
2020-Aug-09 16:58 318 0 gusting 6 17.2
2020-Aug-09 16:53 325 1 gusting 5 16.7
2020-Aug-09 16:48 292 1 gusting 4 16.7
2020-Aug-09 16:43 257 1 gusting 4 17.2
2020-Aug-09 16:38 355 1 gusting 5 17.2
2020-Aug-09 16:33 309 0 gusting 5 16.7
2020-Aug-09 16:28 342 1 gusting 5 16.7
2020-Aug-09 16:23 318 0 gusting 5 16.7
2020-Aug-09 16:18 288 0 gusting 3 16.7
2020-Aug-09 16:13 344 0 gusting 3 16.7
2020-Aug-09 16:08 342 0 gusting 3 16.7
2020-Aug-09 16:03 355 0 gusting 3 16.7
2020-Aug-09 15:58 350 0 gusting 3 16.1
2020-Aug-09 15:53 298 0 gusting 3 16.1
2020-Aug-09 15:48 319 16.1
2020-Aug-09 15:43 225 0 gusting 2 15.6
2020-Aug-09 15:38 339 0 gusting 3 15.6
2020-Aug-09 15:33 314 0 gusting 3 15.0
2020-Aug-09 15:28 355 0 gusting 3 15.0
2020-Aug-09 15:23 336 0 gusting 3 15.0
2020-Aug-09 15:18 337 0 gusting 3 14.4
2020-Aug-09 15:13 323 14.4
2020-Aug-09 15:08 333 13.9
2020-Aug-09 15:03 340 13.3
2020-Aug-09 14:58 348 12.8
2020-Aug-09 14:53 320 12.8
2020-Aug-09 14:48 324 12.2
2020-Aug-09 14:43 324 12.2
2020-Aug-09 14:38 324 12.2
2020-Aug-09 14:33 324 12.2
2020-Aug-09 14:28 324 12.2
2020-Aug-09 14:23 323 11.7
2020-Aug-09 14:18 323 11.7
2020-Aug-09 14:13 316 11.7
2020-Aug-09 14:07 355 11.7
2020-Aug-09 14:02 355 11.7
2020-Aug-09 13:57 333 11.7
2020-Aug-09 13:52 333 0 gusting 2 11.7
2020-Aug-09 13:47 347 11.7
2020-Aug-09 13:42 355 11.1
2020-Aug-09 13:37 355 11.7
2020-Aug-09 13:32 355 11.7
2020-Aug-09 13:27 326 11.1
2020-Aug-09 13:22 336 11.1
2020-Aug-09 13:17 340 11.1
2020-Aug-09 13:12 355 11.1
2020-Aug-09 13:07 012 11.1
2020-Aug-09 13:02 012 11.1
2020-Aug-09 12:57 012 11.1
2020-Aug-09 12:52 336 11.1
2020-Aug-09 12:47 336 11.7
2020-Aug-09 12:42 336 11.7
2020-Aug-09 12:37 336 11.7
2020-Aug-09 12:32 336 11.7
2020-Aug-09 12:27 336 11.7
2020-Aug-09 12:22 336 11.7
2020-Aug-09 12:17 336 11.7
2020-Aug-09 12:12 010 11.7
2020-Aug-09 12:07 342 11.7
2020-Aug-09 12:02 355 11.7
2020-Aug-09 11:57 281 11.7
2020-Aug-09 11:52 355 11.7
2020-Aug-09 11:47 005 11.7
2020-Aug-09 11:41 250 11.7
2020-Aug-09 11:37 239 11.7
2020-Aug-09 11:32 321 11.1
2020-Aug-09 11:27 076 11.1
2020-Aug-09 11:21 076 11.1
2020-Aug-09 11:16 076 11.1
2020-Aug-09 11:11 076 11.1
2020-Aug-09 11:06 076 11.1
2020-Aug-09 11:01 076 11.1
2020-Aug-09 10:56 076 11.1
2020-Aug-09 10:51 076 11.1
2020-Aug-09 10:46 076 11.1
2020-Aug-09 10:41 076 11.1
2020-Aug-09 10:36 076 11.7
2020-Aug-09 10:31 077 11.7
2020-Aug-09 10:26 069 0 gusting 4 11.7
2020-Aug-09 10:21 312 0 gusting 4 11.7
2020-Aug-09 10:16 351 0 gusting 4 11.7
2020-Aug-09 10:11 313 0 gusting 4 11.7
2020-Aug-09 10:06 013 0 gusting 4 11.7
2020-Aug-09 10:01 309 0 gusting 3 11.7
2020-Aug-09 09:56 309 0 gusting 3 11.7
2020-Aug-09 09:51 323 0 gusting 3 11.7
2020-Aug-09 09:46 017 0 gusting 3 11.7
2020-Aug-09 09:41 327 0 gusting 3 11.7
2020-Aug-09 09:36 329 11.7
2020-Aug-09 09:31 334 0 gusting 2 11.7
2020-Aug-09 09:26 348 0 gusting 2 11.7
2020-Aug-09 09:21 313 0 gusting 3 11.7
2020-Aug-09 09:16 312 0 gusting 4 11.7
2020-Aug-09 09:11 331 0 gusting 5 11.7
2020-Aug-09 09:06 313 0 gusting 5 11.7
2020-Aug-09 09:01 330 11.7
2020-Aug-09 08:56 336 11.7
2020-Aug-09 08:51 312 11.7
2020-Aug-09 08:46 317 0 gusting 2 11.7
2020-Aug-09 08:41 336 11.7
2020-Aug-09 08:36 321 11.7
2020-Aug-09 08:31 346 0 gusting 3 11.7
2020-Aug-09 08:26 323 11.7
2020-Aug-09 08:21 340 11.7
2020-Aug-09 08:16 333 0 gusting 3 11.7
2020-Aug-09 08:11 321 0 gusting 3 11.7
2020-Aug-09 08:06 355 11.7
2020-Aug-09 08:01 030 11.7
2020-Aug-09 07:56 318 11.7
2020-Aug-09 07:51 313 11.7
2020-Aug-09 07:46 291 11.7
2020-Aug-09 07:40 319 11.7
2020-Aug-09 07:35 329 11.7
2020-Aug-09 07:31 327 12.2
2020-Aug-09 07:25 313 12.2
2020-Aug-09 07:20 346 12.2
2020-Aug-09 07:15 355 12.2
2020-Aug-09 07:10 005 12.2
2020-Aug-09 07:05 279 0 gusting 4 12.2
2020-Aug-09 07:00 291 0 gusting 4 12.2
2020-Aug-09 06:55 344 0 gusting 3 12.2
2020-Aug-09 06:50 328 12.2
2020-Aug-09 06:45 355 11.7
2020-Aug-09 06:40 355 11.7
2020-Aug-09 06:35 346 12.2
2020-Aug-09 06:30 346 12.2
2020-Aug-09 06:25 342 12.2
2020-Aug-09 06:15 015 12.8
2020-Aug-09 06:10 290 0 gusting 4 12.8
2020-Aug-09 06:05 351 0 gusting 4 12.2
2020-Aug-09 06:00 340 12.2
2020-Aug-09 05:55 340 0 gusting 3 12.2
2020-Aug-09 05:50 351 0 gusting 3 12.8
2020-Aug-09 05:45 290 0 gusting 3 12.8
2020-Aug-09 05:40 331 0 gusting 4 12.8
2020-Aug-09 05:35 323 0 gusting 4 12.8
2020-Aug-09 05:30 317 0 gusting 2 12.8
2020-Aug-09 05:25 027 0 gusting 2 12.8
2020-Aug-09 05:20 333 12.8
2020-Aug-09 05:10 337 0 gusting 4 12.8
2020-Aug-09 05:05 350 1 gusting 4 12.8
2020-Aug-09 05:00 333 0 gusting 4 12.8
2020-Aug-09 04:55 304 0 gusting 4 12.8
2020-Aug-09 04:50 355 0 gusting 4 12.8
2020-Aug-09 04:45 290 0 gusting 2 12.8
2020-Aug-09 04:40 298 12.8
2020-Aug-09 04:35 332 0 gusting 3 12.8
2020-Aug-09 04:30 299 0 gusting 3 13.3
2020-Aug-09 04:25 327 13.3
2020-Aug-09 04:20 312 0 gusting 2 13.3
2020-Aug-09 04:15 315 1 gusting 6 13.3
2020-Aug-09 04:10 302 0 gusting 6 13.3
2020-Aug-09 04:05 338 0 gusting 3 13.3
2020-Aug-09 04:00 012 0 gusting 3 13.9
2020-Aug-09 03:55 329 0 gusting 6 13.3
2020-Aug-09 03:49 273 0 gusting 6 13.3
2020-Aug-09 03:44 327 13.3
2020-Aug-09 03:39 13.3
2020-Aug-09 03:34 13.9
2020-Aug-09 03:29 329 13.9
2020-Aug-09 03:24 333 13.9
2020-Aug-09 03:19 348 14.4
2020-Aug-09 03:14 355 0 gusting 3 14.4
2020-Aug-09 03:09 322 14.4
2020-Aug-09 03:04 345 0 gusting 5 14.4
2020-Aug-09 02:59 294 0 gusting 5 15.0
2020-Aug-09 02:54 345 1 gusting 5 15.0
2020-Aug-09 02:49 019 0 gusting 4 15.0
2020-Aug-09 02:44 322 0 gusting 5 14.4
2020-Aug-09 02:39 315 0 gusting 5 15.0
2020-Aug-09 02:34 247 0 gusting 7 14.4
2020-Aug-09 02:29 071 1 gusting 7 14.4
2020-Aug-09 02:24 338 0 gusting 7 15.0
2020-Aug-09 02:19 005 1 gusting 5 15.0
2020-Aug-09 02:14 355 0 gusting 5 15.0
2020-Aug-09 02:09 339 0 gusting 5 15.6
2020-Aug-09 02:04 355 1 gusting 6 15.6
2020-Aug-09 01:59 304 1 gusting 6 15.6
2020-Aug-09 01:54 011 0 gusting 4 15.6
2020-Aug-09 01:49 349 0 gusting 3 15.6
2020-Aug-09 01:44 029 0 gusting 5 15.6
2020-Aug-09 01:39 302 0 gusting 5 15.6
2020-Aug-09 01:34 005 1 gusting 5 15.6
2020-Aug-09 01:29 342 1 gusting 5 15.6
2020-Aug-09 01:24 330 0 gusting 8 15.6
2020-Aug-09 01:19 300 1 gusting 8 15.6
2020-Aug-09 01:14 355 2 gusting 7 16.1
2020-Aug-09 01:09 16.1
2020-Aug-09 01:04 005 1 gusting 6 16.7
2020-Aug-09 00:59 316 1 gusting 5 16.7
2020-Aug-09 00:54 305 0 gusting 4 16.7
2020-Aug-09 00:49 355 1 gusting 8 16.7
2020-Aug-09 00:44 269 1 gusting 8 16.7
2020-Aug-09 00:39 286 1 gusting 6 17.2
2020-Aug-09 00:34 005 1 gusting 6 17.2
2020-Aug-09 00:29 342 2 gusting 6 17.2
2020-Aug-09 00:24 17.8
2020-Aug-09 00:19 331 1 gusting 6 17.8
2020-Aug-09 00:14 338 0 gusting 3 17.8
2020-Aug-09 00:09 328 0 gusting 4 17.8
2020-Aug-09 00:04 298 0 gusting 4 17.8
2020-Aug-08 23:59 355 0 gusting 5 18.3
2020-Aug-08 23:54 017 0 gusting 5 18.3
2020-Aug-08 23:49 18.3
2020-Aug-08 23:44 327 0 gusting 3 18.3
2020-Aug-08 23:39 301 0 gusting 3 17.8
2020-Aug-08 23:34 005 0 gusting 4 18.3
2020-Aug-08 23:29 320 0 gusting 4 18.3
2020-Aug-08 23:24 319 0 gusting 3 18.3
2020-Aug-08 23:19 280 0 gusting 5 18.3
2020-Aug-08 23:14 300 1 gusting 5 18.3
2020-Aug-08 23:09 051 1 gusting 6 17.8
2020-Aug-08 23:04 342 1 gusting 6 17.8
2020-Aug-08 22:59 316 1 gusting 6 18.3
2020-Aug-08 22:54 033 1 gusting 6 18.3
2020-Aug-08 22:49 338 1 gusting 12 18.3
2020-Aug-08 22:44 325 2 gusting 12 18.3
2020-Aug-08 22:39 306 2 gusting 9 17.8
2020-Aug-08 22:33 142 1 gusting 7 17.2
2020-Aug-08 22:29 17.2
2020-Aug-08 22:23 299 1 gusting 5 17.2
2020-Aug-08 22:19 021 1 gusting 6 17.2
2020-Aug-08 22:13 097 2 gusting 7 17.2
2020-Aug-08 22:08 17.8
2020-Aug-08 22:03 315 0 gusting 7 17.2
2020-Aug-08 21:58 348 1 gusting 6 17.2
2020-Aug-08 21:53 17.2
2020-Aug-08 21:48 293 1 gusting 4 17.8
2020-Aug-08 21:43 330 1 gusting 4 17.2
2020-Aug-08 21:38 342 1 gusting 5 17.8
2020-Aug-08 21:33 327 1 gusting 8 17.2
2020-Aug-08 21:28 010 1 gusting 8 17.2
2020-Aug-08 21:23 325 2 gusting 8 17.2
2020-Aug-08 21:18 348 1 gusting 6 16.7
2020-Aug-08 21:13 309 1 gusting 7 16.7
2020-Aug-08 21:08 019 1 gusting 7 16.7
2020-Aug-08 21:03 290 1 gusting 6 17.2
2020-Aug-08 20:58 327 1 gusting 6 17.8
2020-Aug-08 20:53 013 1 gusting 6 17.8
2020-Aug-08 20:48 302 1 gusting 6 17.8
2020-Aug-08 20:43 063 0 gusting 5 18.3
2020-Aug-08 20:38 005 0 gusting 10 18.3
2020-Aug-08 20:33 005 2 gusting 10 17.8
2020-Aug-08 20:28 16.7
2020-Aug-08 20:23 015 2 gusting 14 16.7
2020-Aug-08 20:18 302 1 gusting 9 16.7
2020-Aug-08 20:13 295 1 gusting 6 16.7
2020-Aug-08 20:08 348 2 gusting 6 16.7
2020-Aug-08 20:03 023 2 gusting 8 16.1
2020-Aug-08 19:58 344 1 gusting 8 16.1
2020-Aug-08 19:53 012 1 gusting 7 15.6
2020-Aug-08 19:48 312 2 gusting 9 15.0
2020-Aug-08 19:43 207 2 gusting 9 14.4
2020-Aug-08 19:38 307 1 gusting 6 15.0
2020-Aug-08 19:33 336 2 gusting 6 15.0
2020-Aug-08 19:28 347 2 gusting 7 15.0
2020-Aug-08 19:23 011 2 gusting 7 15.0
2020-Aug-08 19:18 214 2 gusting 7 15.0
2020-Aug-08 19:13 331 1 gusting 7 15.0
2020-Aug-08 19:08 326 1 gusting 6 15.0
2020-Aug-08 19:03 323 1 gusting 6 15.0
2020-Aug-08 18:58 329 0 gusting 4 15.6
2020-Aug-08 18:53 320 0 gusting 4 15.0
2020-Aug-08 18:48 032 0 gusting 4 15.0
2020-Aug-08 18:43 055 0 gusting 5 15.0
2020-Aug-08 18:38 155 1 gusting 5 14.4
2020-Aug-08 18:33 327 1 gusting 5 14.4
2020-Aug-08 18:28 337 1 gusting 4 14.4
2020-Aug-08 18:23 340 0 gusting 6 15.0
2020-Aug-08 18:18 344 1 gusting 6 14.4
2020-Aug-08 18:13 348 1 gusting 6 14.4
2020-Aug-08 18:08 022 2 gusting 6 14.4
2020-Aug-08 18:03 14.4
2020-Aug-08 17:58 322 2 gusting 10 14.4
2020-Aug-08 17:53 355 2 gusting 6 14.4
2020-Aug-08 17:48 315 1 gusting 7 15.0
2020-Aug-08 17:43 329 0 gusting 7 15.0
2020-Aug-08 17:38 005 1 gusting 4 15.0
2020-Aug-08 17:33 005 0 gusting 6 15.0
2020-Aug-08 17:27 324 0 gusting 6 15.0
2020-Aug-08 17:22 036 0 gusting 3 15.0
2020-Aug-08 17:17 125 0 gusting 2 14.4
2020-Aug-08 17:13 309 0 gusting 4 14.4
2020-Aug-08 17:08 024 0 gusting 5 14.4
2020-Aug-08 17:02 313 0 gusting 5 14.4
2020-Aug-08 16:57 009 0 gusting 3 15.0
2020-Aug-08 16:52 320 0 gusting 2 15.0
2020-Aug-08 16:47 067 0 gusting 2 14.4
2020-Aug-08 16:42 005 14.4
2020-Aug-08 16:38 347 13.9
2020-Aug-08 16:32 005 0 gusting 3 13.9
2020-Aug-08 16:27 317 0 gusting 3 13.9
2020-Aug-08 16:22 338 0 gusting 3 13.9
2020-Aug-08 16:17 13.9
2020-Aug-08 16:12 011 0 gusting 2 13.9
2020-Aug-08 16:07 336 0 gusting 2 13.9
2020-Aug-08 16:02 351 13.9
2020-Aug-08 15:57 328 13.9
2020-Aug-08 15:52 344 13.9
2020-Aug-08 15:47 160 13.9
2020-Aug-08 15:42 340 13.9
2020-Aug-08 15:37 312 13.9
2020-Aug-08 15:32 331 13.9
2020-Aug-08 15:27 321 13.9
2020-Aug-08 15:22 316 13.9
2020-Aug-08 15:17 005 13.9
2020-Aug-08 15:12 005 13.9
2020-Aug-08 15:07 005 13.9
2020-Aug-08 15:02 005 13.9
2020-Aug-08 14:57 005 13.9
2020-Aug-08 14:52 005 13.9
2020-Aug-08 14:47 036 13.9
2020-Aug-08 14:42 036 13.9
2020-Aug-08 14:37 036 13.9
2020-Aug-08 14:32 038 13.3
2020-Aug-08 14:27 038 13.3
2020-Aug-08 14:22 038 13.3
2020-Aug-08 14:17 038 13.3
2020-Aug-08 14:12 038 13.3
2020-Aug-08 14:07 038 13.3
2020-Aug-08 14:02 038 13.3
2020-Aug-08 13:57 038 13.3
2020-Aug-08 13:52 038 13.3
2020-Aug-08 13:47 038 13.3
2020-Aug-08 13:42 038 13.3
2020-Aug-08 13:37 038 13.3
2020-Aug-08 13:32 038 13.3
2020-Aug-08 13:27 038 13.3
2020-Aug-08 13:22 038 12.8
2020-Aug-08 13:17 038 12.8
2020-Aug-08 13:12 038 12.8
2020-Aug-08 13:07 038 12.8
2020-Aug-08 13:02 038 12.8
2020-Aug-08 12:56 038 12.8
2020-Aug-08 12:51 038 12.8
2020-Aug-08 12:46 038 12.8
2020-Aug-08 12:41 038 12.8
2020-Aug-08 12:36 038 12.8
2020-Aug-08 12:31 038 12.8
2020-Aug-08 12:26 038 12.8
2020-Aug-08 12:21 038 12.8
2020-Aug-08 12:16 038 12.8
2020-Aug-08 12:11 038 12.8
2020-Aug-08 12:06 038 12.8
2020-Aug-08 12:01 038 12.8
2020-Aug-08 11:56 038 12.8
2020-Aug-08 11:51 038 12.8
2020-Aug-08 11:46 038 12.8
2020-Aug-08 11:41 038 12.8
2020-Aug-08 11:36 038 12.8
2020-Aug-08 11:31 038 12.8
2020-Aug-08 11:26 038 12.8
2020-Aug-08 11:21 038 12.8
2020-Aug-08 11:16 038 12.8
2020-Aug-08 11:11 038 12.8
2020-Aug-08 11:06 038 12.8
2020-Aug-08 11:01 038 12.8
2020-Aug-08 10:56 038 12.8
2020-Aug-08 10:51 038 12.8
2020-Aug-08 10:46 038 12.8
2020-Aug-08 10:41 040 12.8
2020-Aug-08 10:36 040 12.8
2020-Aug-08 10:31 040 12.8
2020-Aug-08 10:26 040 12.8
2020-Aug-08 10:21 040 12.8
2020-Aug-08 10:16 040 12.2
2020-Aug-08 10:11 350 12.2
2020-Aug-08 10:06 350 12.2
2020-Aug-08 10:01 350 12.2
2020-Aug-08 09:56 005 12.2
2020-Aug-08 09:51 304 12.2
2020-Aug-08 09:46 304 0 gusting 2 12.2
2020-Aug-08 09:41 355 0 gusting 2 12.8
2020-Aug-08 09:35 336 0 gusting 2 12.8
2020-Aug-08 09:31 005 0 gusting 2 12.8
2020-Aug-08 09:25 013 12.8
2020-Aug-08 09:20 326 12.8
2020-Aug-08 09:15 334 12.8
2020-Aug-08 09:10 338 12.8
2020-Aug-08 09:05 349 12.8
2020-Aug-08 09:00 116 12.8
2020-Aug-08 08:55 344 12.8
2020-Aug-08 08:50 290 12.8
2020-Aug-08 08:45 306 12.8
2020-Aug-08 08:40 313 12.8
2020-Aug-08 08:35 005 12.8
2020-Aug-08 08:30 005 12.8
2020-Aug-08 08:25 005 13.3
2020-Aug-08 08:20 348 13.3
2020-Aug-08 08:15 348 13.3
2020-Aug-08 08:10 348 13.3
2020-Aug-08 08:05 311 13.3
2020-Aug-08 08:00 312 12.8